Regional Weather Roundup
Issued by NWS

Home | Current Version | Previous Version | Text Only | Print | Product List | Glossary On
Versions: 1 2 3 4 5 6 7 8 9 10 11 12 13 14 15 16 17 18 19 20 21 22 23 24 25 26 27
000
ASUS46 KPQR 252010
RWROR

OREGON REGIONAL WEATHER ROUNDUP
NATIONAL WEATHER SERVICE PORTLAND OR
100 PM PDT TUE APR 25 2017

NOTE: "FAIR" INDICATES FEW OR NO CLOUDS BELOW 12,000 FEET WITH
NO SIGNIFICANT WEATHER AND/OR OBSTRUCTIONS TO VISIBILITY.

ORZ001>013-252100-
NORTHWEST OREGON


CITY           SKY/WX    TMP DP  RH WIND       PRES   REMARKS
ASTORIA        LGT RAIN  51  46  83 SE8       29.89F
NEWPORT        DRIZZLE   50  48  93 SE6       29.93F
PORTLAND       LGT RAIN  54  45  71 SE6       29.96F
VANCOUVER WA   LGT RAIN  54  46  74 SE5       29.95F
SCAPPOOSE      LGT RAIN  52  47  83 SE7       29.94F
HILLSBORO      LGT RAIN  52  47  83 SE9       29.94F
AURORA         CLOUDY    55  44  66 S6        29.96F
MCMINNVILLE    LGT RAIN  53  47  79 S6        29.96F
SALEM          LGT RAIN  52  46  80 S10       29.95S
CORVALLIS      CLOUDY    52  46  82 SE5       29.93F
EUGENE         LGT RAIN  53  47  79 S10       29.95F
$$

ORZ021-028-252100-
SOUTHWEST OREGON


CITY           SKY/WX    TMP DP  RH WIND       PRES   REMARKS
NORTH BEND     CLOUDY    54  52  94 SE9       29.95F
BROOKINGS      LGT RAIN  50  49  96 S9G18     30.05R FOG
ROSEBURG       LGT RAIN  52  48  86 S5        29.98S FOG
SEXTON SUMMIT  FOG       39  38  96 S10       29.96R VSB<1/4 WCI  32
MEDFORD        LGT RAIN  53  45  74 N6        29.99F
$$

ORZ014>016-041-252100-
COLUMBIA GORGE


CITY           SKY/WX    TMP DP  RH WIND       PRES   REMARKS
TROUTDALE      LGT RAIN  54  45  71 E5        29.96F
HOOD RIVER     CLOUDY    52  39  62 NW8       29.95F
THE DALLES     CLOUDY    57  41  55 N6        29.94F
$$

ORZ029>031-041-044-049-050-061>064-502-503-505>511-252100-
EASTERN OREGON


CITY           SKY/WX    TMP DP  RH WIND       PRES   REMARKS
REDMOND        CLOUDY    50  26  39 SW12G21   29.92S
BEND           CLOUDY    48  28  46 SW12      29.92F
PRINEVILLE     CLOUDY    52  28  40 SW8       29.91F
KLAMATH FALLS  CLOUDY    44  34  67 SW5       30.00S
LAKEVIEW       CLOUDY    43  30  61 SE16G22   30.00F
HERMISTON      CLOUDY    59  41  51 SW9       29.91F
PENDLETON      CLOUDY    54  38  54 S8        29.91F
JOHN DAY       CLOUDY    50  33  53 CALM      29.92F
MEACHAM        CLOUDY    45  34  65 VRB3      29.91F
LA GRANDE      CLOUDY    48  36  61 N6        29.91F
BAKER CITY     PTSUNNY   50  33  52 E5        29.90F
BURNS          PTSUNNY   46  31  55 S10       29.94F
ROME             N/A     53  28  38 S16G25    29.94F
ONTARIO        MOSUNNY   59  33  37 SW9       29.94S
$$




USA.gov is the U.S. government's official web portal to all federal, state and local government web resources and services.